owner,sensor,date,latitude,longitude,vertical_datum,sea_water_practical_salinity,qcFlag 
DISL,ioos:station:DISL:MHPA:1,2014-11-01T00:00:00Z,30.6671,-87.9365,0.888,4.66,1111122 
DISL,ioos:station:DISL:MHPA:1,2014-11-01T00:30:00Z,30.6671,-87.9365,0.91,4.68,1111122 
DISL,ioos:station:DISL:MHPA:1,2014-11-01T01:00:00Z,30.6671,-87.9365,0.905,4.69,1111122 
DISL,ioos:station:DISL:MHPA:1,2014-11-01T01:30:00Z,30.6671,-87.9365,0.899,4.71,1111122 
DISL,ioos:station:DISL:MHPA:1,2014-11-01T02:00:00Z,30.6671,-87.9365,0.882,4.73,1111122 
DISL,ioos:station:DISL:MHPA:1,2014-11-01T02:30:00Z,30.6671,-87.9365,0.856,4.73,1111122 
DISL,ioos:station:DISL:MHPA:1,2014-11-01T03:00:00Z,30.6671,-87.9365,0.824,4.72,1111122 
DISL,ioos:station:DISL:MHPA:1,2014-11-01T03:30:00Z,30.6671,-87.9365,0.791,4.71,1111122 
DISL,ioos:station:DISL:MHPA:1,2014-11-01T04:00:00Z,30.6671,-87.9365,0.758,4.67,1111122 
DISL,ioos:station:DISL:MHPA:1,2014-11-01T04:30:00Z,30.6671,-87.9365,0.727,4.62,1111122 
DISL,ioos:station:DISL:MHPA:1,2014-11-01T05:00:00Z,30.6671,-87.9365,0.701,4.66,1111122 
DISL,ioos:station:DISL:MHPA:1,2014-11-01T05:30:00Z,30.6671,-87.9365,0.678,4.7,1111122 
DISL,ioos:station:DISL:MHPA:1,2014-11-01T06:00:00Z,30.6671,-87.9365,0.656,4.75,1111122 
DISL,ioos:station:DISL:MHPA:1,2014-11-01T06:30:00Z,30.6671,-87.9365,0.64,4.78,1111122 
DISL,ioos:station:DISL:MHPA:1,2014-11-01T07:00:00Z,30.6671,-87.9365,0.624,4.79,1111122 
DISL,ioos:station:DISL:MHPA:1,2014-11-01T07:30:00Z,30.6671,-87.9365,0.61,4.77,1111122 
DISL,ioos:station:DISL:MHPA:1,2014-11-01T08:00:00Z,30.6671,-87.9365,0.599,4.78,1111122 
DISL,ioos:station:DISL:MHPA:1,2014-11-01T08:30:00Z,30.6671,-87.9365,0.587,4.78,1111122 
DISL,ioos:station:DISL:MHPA:1,2014-11-01T09:00:00Z,30.6671,-87.9365,0.578,4.78,1111122 
DISL,ioos:station:DISL:MHPA:1,2014-11-01T09:30:00Z,30.6671,-87.9365,0.568,4.8,1111122 
DISL,ioos:station:DISL:MHPA:1,2014-11-01T10:00:00Z,30.6671,-87.9365,0.56,4.82,1111122 
DISL,ioos:station:DISL:MHPA:1,2014-11-01T10:30:00Z,30.6671,-87.9365,0.553,4.82,1111122 
DISL,ioos:station:DISL:MHPA:1,2014-11-01T11:00:00Z,30.6671,-87.9365,0.547,4.81,1111122 
DISL,ioos:station:DISL:MHPA:1,2014-11-01T11:30:00Z,30.6671,-87.9365,0.54,4.81,1111122 
DISL,ioos:station:DISL:MHPA:1,2014-11-01T12:00:00Z,30.6671,-87.9365,0.534,4.8,1111122 
DISL,ioos:station:DISL:MHPA:1,2014-11-01T12:30:00Z,30.6671,-87.9365,0.53,4.8,1111122 
DISL,ioos:station:DISL:MHPA:1,2014-11-01T13:00:00Z,30.6671,-87.9365,0.525,4.81,1111122 
DISL,ioos:station:DISL:MHPA:1,2014-11-01T13:30:00Z,30.6671,-87.9365,0.522,4.81,1111122 
DISL,ioos:station:DISL:MHPA:1,2014-11-01T14:00:00Z,30.6671,-87.9365,0.517,4.81,1111122 
DISL,ioos:station:DISL:MHPA:1,2014-11-01T14:30:00Z,30.6671,-87.9365,0.514,4.8,1111122 
DISL,ioos:station:DISL:MHPA:1,2014-11-01T15:00:00Z,30.6671,-87.9365,0.512,4.82,1111122 
DISL,ioos:station:DISL:MHPA:1,2014-11-01T15:30:00Z,30.6671,-87.9365,0.51,4.82,1111122 
DISL,ioos:station:DISL:MHPA:1,2014-11-01T16:00:00Z,30.6671,-87.9365,0.508,4.82,1111122 
DISL,ioos:station:DISL:MHPA:1,2014-11-01T16:30:00Z,30.6671,-87.9365,0.51,4.82,1111122 
DISL,ioos:station:DISL:MHPA:1,2014-11-01T17:00:00Z,30.6671,-87.9365,0.513,4.83,1111122 
DISL,ioos:station:DISL:MHPA:1,2014-11-01T17:30:00Z,30.6671,-87.9365,0.519,4.82,1111122 
DISL,ioos:station:DISL:MHPA:1,2014-11-01T18:00:00Z,30.6671,-87.9365,0.531,4.82,1111122 
DISL,ioos:station:DISL:MHPA:1,2014-11-01T18:30:00Z,30.6671,-87.9365,0.549,4.82,1111122 
DISL,ioos:station:DISL:MHPA:1,2014-11-01T19:00:00Z,30.6671,-87.9365,0.571,4.82,1111122 
DISL,ioos:station:DISL:MHPA:1,2014-11-01T19:30:00Z,30.6671,-87.9365,0.592,4.82,1111122 
DISL,ioos:station:DISL:MHPA:1,2014-11-01T20:00:00Z,30.6671,-87.9365,0.613,4.82,1111122 
DISL,ioos:station:DISL:MHPA:1,2014-11-01T20:30:00Z,30.6671,-87.9365,0.633,4.82,1111122 
DISL,ioos:station:DISL:MHPA:1,2014-11-01T21:00:00Z,30.6671,-87.9365,0.646,4.82,1111122 
DISL,ioos:station:DISL:MHPA:1,2014-11-01T21:30:00Z,30.6671,-87.9365,0.653,4.82,1111122 
DISL,ioos:station:DISL:MHPA:1,2014-11-01T22:00:00Z,30.6671,-87.9365,0.658,4.82,1111122 
DISL,ioos:station:DISL:MHPA:1,2014-11-01T22:30:00Z,30.6671,-87.9365,0.664,4.82,1111122 
DISL,ioos:station:DISL:MHPA:1,2014-11-01T23:00:00Z,30.6671,-87.9365,0.663,4.82,1111122 
DISL,ioos:station:DISL:MHPA:1,2014-11-01T23:30:00Z,30.6671,-87.9365,0.665,4.81,1111122 
DISL,ioos:station:DISL:MHPA:1,2014-11-02T00:00:00Z,30.6671,-87.9365,0.67,4.81,1111122 
DISL,ioos:station:DISL:MHPA:1,2014-11-02T00:30:00Z,30.6671,-87.9365,0.672,4.81,1111122 
DISL,ioos:station:DISL:MHPA:1,2014-11-02T01:00:00Z,30.6671,-87.9365,0.667,4.81,1111122 
DISL,ioos:station:DISL:MHPA:1,2014-11-02T01:30:00Z,30.6671,-87.9365,0.67,4.81,1111122 
DISL,ioos:station:DISL:MHPA:1,2014-11-02T02:00:00Z,30.6671,-87.9365,0.683,4.81,1111122 
DISL,ioos:station:DISL:MHPA:1,2014-11-02T02:30:00Z,30.6671,-87.9365,0.691,4.81,1111122 
DISL,ioos:station:DISL:MHPA:1,2014-11-02T03:00:00Z,30.6671,-87.9365,0.688,4.81,1111122 
DISL,ioos:station:DISL:MHPA:1,2014-11-02T03:30:00Z,30.6671,-87.9365,0.685,4.8,1111122 
DISL,ioos:station:DISL:MHPA:1,2014-11-02T04:00:00Z,30.6671,-87.9365,0.682,4.81,1111122 
DISL,ioos:station:DISL:MHPA:1,2014-11-02T04:30:00Z,30.6671,-87.9365,0.674,4.8,1111122 
DISL,ioos:station:DISL:MHPA:1,2014-11-02T05:00:00Z,30.6671,-87.9365,0.666,4.8,1111122 
DISL,ioos:station:DISL:MHPA:1,2014-11-02T05:30:00Z,30.6671,-87.9365,0.66,4.8,1111122 
DISL,ioos:station:DISL:MHPA:1,2014-11-02T06:00:00Z,30.6671,-87.9365,0.658,4.79,1111122 
DISL,ioos:station:DISL:MHPA:1,2014-11-02T06:30:00Z,30.6671,-87.9365,0.652,4.79,1111122 
DISL,ioos:station:DISL:MHPA:1,2014-11-02T07:00:00Z,30.6671,-87.9365,0.642,4.79,1111122 
DISL,ioos:station:DISL:MHPA:1,2014-11-02T07:30:00Z,30.6671,-87.9365,0.631,4.79,1111122 
DISL,ioos:station:DISL:MHPA:1,2014-11-02T08:00:00Z,30.6671,-87.9365,0.62,4.79,1111122 
DISL,ioos:station:DISL:MHPA:1,2014-11-02T08:30:00Z,30.6671,-87.9365,0.609,4.79,1111122 
DISL,ioos:station:DISL:MHPA:1,2014-11-02T09:00:00Z,30.6671,-87.9365,0.599,4.79,1111122 
DISL,ioos:station:DISL:MHPA:1,2014-11-02T09:30:00Z,30.6671,-87.9365,0.59,4.79,1111122 
DISL,ioos:station:DISL:MHPA:1,2014-11-02T10:00:00Z,30.6671,-87.9365,0.582,4.79,1111122 
DISL,ioos:station:DISL:MHPA:1,2014-11-02T10:30:00Z,30.6671,-87.9365,0.578,4.79,1111122 
DISL,ioos:station:DISL:MHPA:1,2014-11-02T11:00:00Z,30.6671,-87.9365,0.58,4.79,1111122 
DISL,ioos:station:DISL:MHPA:1,2014-11-02T11:30:00Z,30.6671,-87.9365,0.59,4.79,1111122 
DISL,ioos:station:DISL:MHPA:1,2014-11-02T12:00:00Z,30.6671,-87.9365,0.607,4.79,1111122 
DISL,ioos:station:DISL:MHPA:1,2014-11-02T12:30:00Z,30.6671,-87.9365,0.636,4.79,1111122 
DISL,ioos:station:DISL:MHPA:1,2014-11-02T13:00:00Z,30.6671,-87.9365,0.674,4.79,1111122 
DISL,ioos:station:DISL:MHPA:1,2014-11-02T13:30:00Z,30.6671,-87.9365,0.716,4.79,1111122 
DISL,ioos:station:DISL:MHPA:1,2014-11-02T14:00:00Z,30.6671,-87.9365,0.752,4.79,1111122 
DISL,ioos:station:DISL:MHPA:1,2014-11-02T14:30:00Z,30.6671,-87.9365,0.782,4.8,1111122 
DISL,ioos:station:DISL:MHPA:1,2014-11-02T15:00:00Z,30.6671,-87.9365,0.808,4.8,1111122 
DISL,ioos:station:DISL:MHPA:1,2014-11-02T15:30:00Z,30.6671,-87.9365,0.825,4.79,1111122 
DISL,ioos:station:DISL:MHPA:1,2014-11-02T16:00:00Z,30.6671,-87.9365,0.831,4.8,1111122 
DISL,ioos:station:DISL:MHPA:1,2014-11-02T16:30:00Z,30.6671,-87.9365,0.841,4.78,1111122 
DISL,ioos:station:DISL:MHPA:1,2014-11-02T17:00:00Z,30.6671,-87.9365,0.857,4.78,1111122 
DISL,ioos:station:DISL:MHPA:1,2014-11-02T17:30:00Z,30.6671,-87.9365,0.864,4.77,1111122 
DISL,ioos:station:DISL:MHPA:1,2014-11-02T18:00:00Z,30.6671,-87.9365,0.852,4.77,1111122 
DISL,ioos:station:DISL:MHPA:1,2014-11-02T18:30:00Z,30.6671,-87.9365,0.835,4.77,1111122 
DISL,ioos:station:DISL:MHPA:1,2014-11-02T19:00:00Z,30.6671,-87.9365,0.815,4.78,1111122 
DISL,ioos:station:DISL:MHPA:1,2014-11-02T19:30:00Z,30.6671,-87.9365,0.8,4.77,1111122 
DISL,ioos:station:DISL:MHPA:1,2014-11-02T20:00:00Z,30.6671,-87.9365,0.784,4.77,1111122 
DISL,ioos:station:DISL:MHPA:1,2014-11-02T20:30:00Z,30.6671,-87.9365,0.768,4.77,1111122 
DISL,ioos:station:DISL:MHPA:1,2014-11-02T21:00:00Z,30.6671,-87.9365,0.754,4.77,1111122 
DISL,ioos:station:DISL:MHPA:1,2014-11-02T21:30:00Z,30.6671,-87.9365,0.743,4.77,1111122 
DISL,ioos:station:DISL:MHPA:1,2014-11-02T22:00:00Z,30.6671,-87.9365,0.739,4.77,1111122 
DISL,ioos:station:DISL:MHPA:1,2014-11-02T22:30:00Z,30.6671,-87.9365,0.738,4.77,1111122 
DISL,ioos:station:DISL:MHPA:1,2014-11-02T23:00:00Z,30.6671,-87.9365,0.736,4.76,1111122 
DISL,ioos:station:DISL:MHPA:1,2014-11-02T23:30:00Z,30.6671,-87.9365,0.738,4.75,1111122 
DISL,ioos:station:DISL:MHPA:1,2014-11-03T00:00:00Z,30.6671,-87.9365,0.746,4.67,1111122 
DISL,ioos:station:DISL:MHPA:1,2014-11-03T00:30:00Z,30.6671,-87.9365,0.761,4.71,1111122 
DISL,ioos:station:DISL:MHPA:1,2014-11-03T01:00:00Z,30.6671,-87.9365,0.787,4.74,1111122 
DISL,ioos:station:DISL:MHPA:1,2014-11-03T01:30:00Z,30.6671,-87.9365,0.821,4.7,1111122 
DISL,ioos:station:DISL:MHPA:1,2014-11-03T02:00:00Z,30.6671,-87.9365,0.854,4.71,1111122 
DISL,ioos:station:DISL:MHPA:1,2014-11-03T02:30:00Z,30.6671,-87.9365,0.879,4.71,1111122 
DISL,ioos:station:DISL:MHPA:1,2014-11-03T03:00:00Z,30.6671,-87.9365,0.902,4.71,1111122 
DISL,ioos:station:DISL:MHPA:1,2014-11-03T03:30:00Z,30.6671,-87.9365,0.912,4.73,1111122 
DISL,ioos:station:DISL:MHPA:1,2014-11-03T04:00:00Z,30.6671,-87.9365,0.918,4.72,1111122 
DISL,ioos:station:DISL:MHPA:1,2014-11-03T04:30:00Z,30.6671,-87.9365,0.927,4.65,1111122 
DISL,ioos:station:DISL:MHPA:1,2014-11-03T05:00:00Z,30.6671,-87.9365,0.94,4.64,1111122 
DISL,ioos:station:DISL:MHPA:1,2014-11-03T05:30:00Z,30.6671,-87.9365,0.936,4.69,1111122 
DISL,ioos:station:DISL:MHPA:1,2014-11-03T06:00:00Z,30.6671,-87.9365,0.931,4.69,1111122 
DISL,ioos:station:DISL:MHPA:1,2014-11-03T06:30:00Z,30.6671,-87.9365,0.928,4.74,1111122 
DISL,ioos:station:DISL:MHPA:1,2014-11-03T07:00:00Z,30.6671,-87.9365,0.91,4.74,1111122 
DISL,ioos:station:DISL:MHPA:1,2014-11-03T07:30:00Z,30.6671,-87.9365,0.879,4.54,1111122 
DISL,ioos:station:DISL:MHPA:1,2014-11-03T08:00:00Z,30.6671,-87.9365,0.859,4.69,1111122 
DISL,ioos:station:DISL:MHPA:1,2014-11-03T08:30:00Z,30.6671,-87.9365,0.844,4.65,1111122 
DISL,ioos:station:DISL:MHPA:1,2014-11-03T09:00:00Z,30.6671,-87.9365,0.829,4.72,1111122 
DISL,ioos:station:DISL:MHPA:1,2014-11-03T09:30:00Z,30.6671,-87.9365,0.813,4.67,1111122 
DISL,ioos:station:DISL:MHPA:1,2014-11-03T10:00:00Z,30.6671,-87.9365,0.803,4.66,1111122 
DISL,ioos:station:DISL:MHPA:1,2014-11-03T10:30:00Z,30.6671,-87.9365,0.797,4.71,1111122 
DISL,ioos:station:DISL:MHPA:1,2014-11-03T11:00:00Z,30.6671,-87.9365,0.794,4.72,1111122 
DISL,ioos:station:DISL:MHPA:1,2014-11-03T11:30:00Z,30.6671,-87.9365,0.801,4.71,1111122 
DISL,ioos:station:DISL:MHPA:1,2014-11-03T12:00:00Z,30.6671,-87.9365,0.808,4.58,1111122 
DISL,ioos:station:DISL:MHPA:1,2014-11-03T12:30:00Z,30.6671,-87.9365,0.805,4.66,1111122 
DISL,ioos:station:DISL:MHPA:1,2014-11-03T13:00:00Z,30.6671,-87.9365,0.817,4.58,1111122 
DISL,ioos:station:DISL:MHPA:1,2014-11-03T13:30:00Z,30.6671,-87.9365,0.824,4.42,1111122 
DISL,ioos:station:DISL:MHPA:1,2014-11-03T14:00:00Z,30.6671,-87.9365,0.84,4.39,1111122 
DISL,ioos:station:DISL:MHPA:1,2014-11-03T14:30:00Z,30.6671,-87.9365,0.867,4.32,1111122 
DISL,ioos:station:DISL:MHPA:1,2014-11-03T15:00:00Z,30.6671,-87.9365,0.901,4.33,1111122 
DISL,ioos:station:DISL:MHPA:1,2014-11-03T15:30:00Z,30.6671,-87.9365,0.926,4.25,1111122 
DISL,ioos:station:DISL:MHPA:1,2014-11-03T16:00:00Z,30.6671,-87.9365,0.939,4.0,1111122 
DISL,ioos:station:DISL:MHPA:1,2014-11-03T16:30:00Z,30.6671,-87.9365,0.953,4.24,1111122 
DISL,ioos:station:DISL:MHPA:1,2014-11-03T17:00:00Z,30.6671,-87.9365,0.979,4.14,1111122 
DISL,ioos:station:DISL:MHPA:1,2014-11-03T17:30:00Z,30.6671,-87.9365,1.004,4.03,1111122 
DISL,ioos:station:DISL:MHPA:1,2014-11-03T18:00:00Z,30.6671,-87.9365,1.043,4.01,1111122 
DISL,ioos:station:DISL:MHPA:1,2014-11-03T18:30:00Z,30.6671,-87.9365,1.05,4.01,1111122 
DISL,ioos:station:DISL:MHPA:1,2014-11-03T19:00:00Z,30.6671,-87.9365,1.054,3.95,1111122 
DISL,ioos:station:DISL:MHPA:1,2014-11-03T19:30:00Z,30.6671,-87.9365,1.047,4.04,1111122 
DISL,ioos:station:DISL:MHPA:1,2014-11-03T20:00:00Z,30.6671,-87.9365,1.048,4.15,1111122 
DISL,ioos:station:DISL:MHPA:1,2014-11-03T20:30:00Z,30.6671,-87.9365,1.041,3.96,1111122 
DISL,ioos:station:DISL:MHPA:1,2014-11-03T21:00:00Z,30.6671,-87.9365,1.038,3.93,1111122 
DISL,ioos:station:DISL:MHPA:1,2014-11-03T21:30:00Z,30.6671,-87.9365,1.036,3.92,1111122 
DISL,ioos:station:DISL:MHPA:1,2014-11-03T22:00:00Z,30.6671,-87.9365,1.033,3.84,1111122 
DISL,ioos:station:DISL:MHPA:1,2014-11-03T22:30:00Z,30.6671,-87.9365,1.032,3.94,1111122 
DISL,ioos:station:DISL:MHPA:1,2014-11-03T23:00:00Z,30.6671,-87.9365,1.033,3.9,1111122 
DISL,ioos:station:DISL:MHPA:1,2014-11-03T23:30:00Z,30.6671,-87.9365,1.052,3.9,1111122 
DISL,ioos:station:DISL:MHPA:1,2014-11-04T00:00:00Z,30.6671,-87.9365,1.072,3.96,1111122 
DISL,ioos:station:DISL:MHPA:1,2014-11-04T00:30:00Z,30.6671,-87.9365,1.074,4.1,1111122 
DISL,ioos:station:DISL:MHPA:1,2014-11-04T01:00:00Z,30.6671,-87.9365,1.087,3.92,1111122 
DISL,ioos:station:DISL:MHPA:1,2014-11-04T01:30:00Z,30.6671,-87.9365,1.094,3.78,1111122 
DISL,ioos:station:DISL:MHPA:1,2014-11-04T02:00:00Z,30.6671,-87.9365,1.115,3.88,1111122 
DISL,ioos:station:DISL:MHPA:1,2014-11-04T02:30:00Z,30.6671,-87.9365,1.112,3.75,1111122 
DISL,ioos:station:DISL:MHPA:1,2014-11-04T03:00:00Z,30.6671,-87.9365,1.118,3.78,1111122 
DISL,ioos:station:DISL:MHPA:1,2014-11-04T03:30:00Z,30.6671,-87.9365,1.137,4.0,1111122 
DISL,ioos:station:DISL:MHPA:1,2014-11-04T04:00:00Z,30.6671,-87.9365,1.137,4.04,1111122 
DISL,ioos:station:DISL:MHPA:1,2014-11-04T04:30:00Z,30.6671,-87.9365,1.14,4.16,1111122 
DISL,ioos:station:DISL:MHPA:1,2014-11-04T05:00:00Z,30.6671,-87.9365,1.15,3.97,1111122 
DISL,ioos:station:DISL:MHPA:1,2014-11-04T05:30:00Z,30.6671,-87.9365,1.156,3.91,1111122 
DISL,ioos:station:DISL:MHPA:1,2014-11-04T06:00:00Z,30.6671,-87.9365,1.145,3.94,1111122 
DISL,ioos:station:DISL:MHPA:1,2014-11-04T06:30:00Z,30.6671,-87.9365,1.133,3.9,1111122 
DISL,ioos:station:DISL:MHPA:1,2014-11-04T07:00:00Z,30.6671,-87.9365,1.118,3.91,1111122 
DISL,ioos:station:DISL:MHPA:1,2014-11-04T07:30:00Z,30.6671,-87.9365,1.093,3.92,1111122 
DISL,ioos:station:DISL:MHPA:1,2014-11-04T08:00:00Z,30.6671,-87.9365,1.065,3.85,1111122 
DISL,ioos:station:DISL:MHPA:1,2014-11-04T08:30:00Z,30.6671,-87.9365,1.031,3.83,1111122 
DISL,ioos:station:DISL:MHPA:1,2014-11-04T09:00:00Z,30.6671,-87.9365,1.004,3.81,1111122 
DISL,ioos:station:DISL:MHPA:1,2014-11-04T09:30:00Z,30.6671,-87.9365,0.979,3.73,1111122 
DISL,ioos:station:DISL:MHPA:1,2014-11-04T10:00:00Z,30.6671,-87.9365,0.955,3.85,1111122 
DISL,ioos:station:DISL:MHPA:1,2014-11-04T10:30:00Z,30.6671,-87.9365,0.935,3.83,1111122 
DISL,ioos:station:DISL:MHPA:1,2014-11-04T11:00:00Z,30.6671,-87.9365,0.927,3.82,1111122 
DISL,ioos:station:DISL:MHPA:1,2014-11-04T11:30:00Z,30.6671,-87.9365,0.916,3.8,1111122 
DISL,ioos:station:DISL:MHPA:1,2014-11-04T12:00:00Z,30.6671,-87.9365,0.91,3.67,1111122 
DISL,ioos:station:DISL:MHPA:1,2014-11-04T12:30:00Z,30.6671,-87.9365,0.912,3.73,1111122 
DISL,ioos:station:DISL:MHPA:1,2014-11-04T13:00:00Z,30.6671,-87.9365,0.918,3.52,1111122 
DISL,ioos:station:DISL:MHPA:1,2014-11-04T13:30:00Z,30.6671,-87.9365,0.927,3.61,1111122 
DISL,ioos:station:DISL:MHPA:1,2014-11-04T14:00:00Z,30.6671,-87.9365,0.943,3.57,1111122 
DISL,ioos:station:DISL:MHPA:1,2014-11-04T14:30:00Z,30.6671,-87.9365,0.961,3.5,1111122 
DISL,ioos:station:DISL:MHPA:1,2014-11-04T15:00:00Z,30.6671,-87.9365,0.983,3.51,1111122 
DISL,ioos:station:DISL:MHPA:1,2014-11-04T15:30:00Z,30.6671,-87.9365,0.997,3.57,1111122 
DISL,ioos:station:DISL:MHPA:1,2014-11-04T16:00:00Z,30.6671,-87.9365,1.018,3.49,1111122 
DISL,ioos:station:DISL:MHPA:1,2014-11-04T16:30:00Z,30.6671,-87.9365,1.038,3.46,1111122 
DISL,ioos:station:DISL:MHPA:1,2014-11-04T17:00:00Z,30.6671,-87.9365,1.057,3.42,1111122 
DISL,ioos:station:DISL:MHPA:1,2014-11-04T17:30:00Z,30.6671,-87.9365,1.076,3.54,1111122 
DISL,ioos:station:DISL:MHPA:1,2014-11-04T18:00:00Z,30.6671,-87.9365,1.106,3.53,1111122 
DISL,ioos:station:DISL:MHPA:1,2014-11-04T18:30:00Z,30.6671,-87.9365,1.128,3.73,1111122 
DISL,ioos:station:DISL:MHPA:1,2014-11-04T19:00:00Z,30.6671,-87.9365,1.14,3.79,1111122 
DISL,ioos:station:DISL:MHPA:1,2014-11-04T19:30:00Z,30.6671,-87.9365,1.159,3.63,1111122 
DISL,ioos:station:DISL:MHPA:1,2014-11-04T20:00:00Z,30.6671,-87.9365,1.172,3.7,1111122 
DISL,ioos:station:DISL:MHPA:1,2014-11-04T20:30:00Z,30.6671,-87.9365,1.16,3.62,1111122 
DISL,ioos:station:DISL:MHPA:1,2014-11-04T21:00:00Z,30.6671,-87.9365,1.16,3.58,1111122 
DISL,ioos:station:DISL:MHPA:1,2014-11-04T21:30:00Z,30.6671,-87.9365,1.17,3.5,1111122 
DISL,ioos:station:DISL:MHPA:1,2014-11-04T22:00:00Z,30.6671,-87.9365,1.169,3.47,1111122 
DISL,ioos:station:DISL:MHPA:1,2014-11-04T22:30:00Z,30.6671,-87.9365,1.166,3.49,1111122 
DISL,ioos:station:DISL:MHPA:1,2014-11-04T23:00:00Z,30.6671,-87.9365,1.184,3.66,1111122 
DISL,ioos:station:DISL:MHPA:1,2014-11-04T23:30:00Z,30.6671,-87.9365,1.192,3.67,1111122 
DISL,ioos:station:DISL:MHPA:1,2014-11-05T00:00:00Z,30.6671,-87.9365,1.232,3.74,1111122 
DISL,ioos:station:DISL:MHPA:1,2014-11-05T00:30:00Z,30.6671,-87.9365,1.252,3.51,1111122 
DISL,ioos:station:DISL:MHPA:1,2014-11-05T01:00:00Z,30.6671,-87.9365,1.265,3.47,1111122 
DISL,ioos:station:DISL:MHPA:1,2014-11-05T01:30:00Z,30.6671,-87.9365,1.288,3.47,1111122 
DISL,ioos:station:DISL:MHPA:1,2014-11-05T02:00:00Z,30.6671,-87.9365,1.307,3.46,1111122 
DISL,ioos:station:DISL:MHPA:1,2014-11-05T02:30:00Z,30.6671,-87.9365,1.311,3.45,1111122 
DISL,ioos:station:DISL:MHPA:1,2014-11-05T03:00:00Z,30.6671,-87.9365,1.316,3.49,1111122 
DISL,ioos:station:DISL:MHPA:1,2014-11-05T03:30:00Z,30.6671,-87.9365,1.328,3.83,1111122 
DISL,ioos:station:DISL:MHPA:1,2014-11-05T04:00:00Z,30.6671,-87.9365,1.329,3.62,1111122 
DISL,ioos:station:DISL:MHPA:1,2014-11-05T04:30:00Z,30.6671,-87.9365,1.336,3.51,1111122 
DISL,ioos:station:DISL:MHPA:1,2014-11-05T05:00:00Z,30.6671,-87.9365,1.342,3.53,1111122 
DISL,ioos:station:DISL:MHPA:1,2014-11-05T05:30:00Z,30.6671,-87.9365,1.347,3.51,1111122 
DISL,ioos:station:DISL:MHPA:1,2014-11-05T06:00:00Z,30.6671,-87.9365,1.338,3.51,1111122 
DISL,ioos:station:DISL:MHPA:1,2014-11-05T06:30:00Z,30.6671,-87.9365,1.319,3.47,1111122 
DISL,ioos:station:DISL:MHPA:1,2014-11-05T07:00:00Z,30.6671,-87.9365,1.3,3.57,1111122 
DISL,ioos:station:DISL:MHPA:1,2014-11-05T07:30:00Z,30.6671,-87.9365,1.274,3.6,1111122 
DISL,ioos:station:DISL:MHPA:1,2014-11-05T08:00:00Z,30.6671,-87.9365,1.229,3.6,1111122 
DISL,ioos:station:DISL:MHPA:1,2014-11-05T08:30:00Z,30.6671,-87.9365,1.186,3.66,1111122 
DISL,ioos:station:DISL:MHPA:1,2014-11-05T09:00:00Z,30.6671,-87.9365,1.145,3.63,1111122 
DISL,ioos:station:DISL:MHPA:1,2014-11-05T09:30:00Z,30.6671,-87.9365,1.101,3.61,1111122 
DISL,ioos:station:DISL:MHPA:1,2014-11-05T10:00:00Z,30.6671,-87.9365,1.061,3.55,1111122 
DISL,ioos:station:DISL:MHPA:1,2014-11-05T10:30:00Z,30.6671,-87.9365,1.029,3.49,1111122 
DISL,ioos:station:DISL:MHPA:1,2014-11-05T11:00:00Z,30.6671,-87.9365,1.004,3.41,1111122 
DISL,ioos:station:DISL:MHPA:1,2014-11-05T11:30:00Z,30.6671,-87.9365,0.986,3.42,1111122 
DISL,ioos:station:DISL:MHPA:1,2014-11-05T12:00:00Z,30.6671,-87.9365,0.975,3.37,1111122 
DISL,ioos:station:DISL:MHPA:1,2014-11-05T12:30:00Z,30.6671,-87.9365,0.962,3.34,1111122 
DISL,ioos:station:DISL:MHPA:1,2014-11-05T13:00:00Z,30.6671,-87.9365,0.953,3.32,1111122 
DISL,ioos:station:DISL:MHPA:1,2014-11-05T13:30:00Z,30.6671,-87.9365,0.962,3.35,1111122 
DISL,ioos:station:DISL:MHPA:1,2014-11-05T14:00:00Z,30.6671,-87.9365,0.962,3.49,1111122 
DISL,ioos:station:DISL:MHPA:1,2014-11-05T14:30:00Z,30.6671,-87.9365,0.96,3.49,1111122 
DISL,ioos:station:DISL:MHPA:1,2014-11-05T15:00:00Z,30.6671,-87.9365,0.974,3.49,1111122 
DISL,ioos:station:DISL:MHPA:1,2014-11-05T15:30:00Z,30.6671,-87.9365,0.994,3.48,1111122 
DISL,ioos:station:DISL:MHPA:1,2014-11-05T16:00:00Z,30.6671,-87.9365,1.008,3.49,1111122 
DISL,ioos:station:DISL:MHPA:1,2014-11-05T16:30:00Z,30.6671,-87.9365,1.036,3.55,1111122 
DISL,ioos:station:DISL:MHPA:1,2014-11-05T17:00:00Z,30.6671,-87.9365,1.082,3.6,1111122 
DISL,ioos:station:DISL:MHPA:1,2014-11-05T17:30:00Z,30.6671,-87.9365,1.126,3.44,1111122 
DISL,ioos:station:DISL:MHPA:1,2014-11-05T18:00:00Z,30.6671,-87.9365,1.173,3.47,1111122 
DISL,ioos:station:DISL:MHPA:1,2014-11-05T18:30:00Z,30.6671,-87.9365,1.205,3.46,1111122 
DISL,ioos:station:DISL:MHPA:1,2014-11-05T19:00:00Z,30.6671,-87.9365,1.234,3.46,1111122 
DISL,ioos:station:DISL:MHPA:1,2014-11-05T19:30:00Z,30.6671,-87.9365,1.268,3.49,1111122 
DISL,ioos:station:DISL:MHPA:1,2014-11-05T20:00:00Z,30.6671,-87.9365,1.267,3.5,1111122 
DISL,ioos:station:DISL:MHPA:1,2014-11-05T20:30:00Z,30.6671,-87.9365,1.268,3.47,1111122 
DISL,ioos:station:DISL:MHPA:1,2014-11-05T21:00:00Z,30.6671,-87.9365,1.276,3.44,1111122 
DISL,ioos:station:DISL:MHPA:1,2014-11-05T21:30:00Z,30.6671,-87.9365,1.261,3.47,1111122 
DISL,ioos:station:DISL:MHPA:1,2014-11-05T22:00:00Z,30.6671,-87.9365,1.261,3.48,1111122 
DISL,ioos:station:DISL:MHPA:1,2014-11-05T22:30:00Z,30.6671,-87.9365,1.266,3.54,1111122 
DISL,ioos:station:DISL:MHPA:1,2014-11-05T23:00:00Z,30.6671,-87.9365,1.276,3.57,1111122 
DISL,ioos:station:DISL:MHPA:1,2014-11-05T23:30:00Z,30.6671,-87.9365,1.293,3.57,1111122 
DISL,ioos:station:DISL:MHPA:1,2014-11-06T00:00:00Z,30.6671,-87.9365,1.322,3.57,1111122 
DISL,ioos:station:DISL:MHPA:1,2014-11-06T00:30:00Z,30.6671,-87.9365,1.334,3.53,1111122 
DISL,ioos:station:DISL:MHPA:1,2014-11-06T01:00:00Z,30.6671,-87.9365,1.355,3.52,1111122 
DISL,ioos:station:DISL:MHPA:1,2014-11-06T01:30:00Z,30.6671,-87.9365,1.362,3.47,1111122 
DISL,ioos:station:DISL:MHPA:1,2014-11-06T02:00:00Z,30.6671,-87.9365,1.378,3.51,1111122 
DISL,ioos:station:DISL:MHPA:1,2014-11-06T02:30:00Z,30.6671,-87.9365,1.368,3.49,1111122 
DISL,ioos:station:DISL:MHPA:1,2014-11-06T03:00:00Z,30.6671,-87.9365,1.368,3.51,1111122 
DISL,ioos:station:DISL:MHPA:1,2014-11-06T03:30:00Z,30.6671,-87.9365,1.378,3.7,1111122 
DISL,ioos:station:DISL:MHPA:1,2014-11-06T04:00:00Z,30.6671,-87.9365,1.376,3.63,1111122 
DISL,ioos:station:DISL:MHPA:1,2014-11-06T04:30:00Z,30.6671,-87.9365,1.381,3.62,1111122 
DISL,ioos:station:DISL:MHPA:1,2014-11-06T05:00:00Z,30.6671,-87.9365,1.376,3.66,1111122 
DISL,ioos:station:DISL:MHPA:1,2014-11-06T05:30:00Z,30.6671,-87.9365,1.381,3.72,1111122 
DISL,ioos:station:DISL:MHPA:1,2014-11-06T06:00:00Z,30.6671,-87.9365,1.372,3.68,1111122 
DISL,ioos:station:DISL:MHPA:1,2014-11-06T06:30:00Z,30.6671,-87.9365,1.353,3.67,1111122 
DISL,ioos:station:DISL:MHPA:1,2014-11-06T07:00:00Z,30.6671,-87.9365,1.336,3.7,1111122 
DISL,ioos:station:DISL:MHPA:1,2014-11-06T07:30:00Z,30.6671,-87.9365,1.3,3.72,1111122 
DISL,ioos:station:DISL:MHPA:1,2014-11-06T08:00:00Z,30.6671,-87.9365,1.251,3.72,1111122 
DISL,ioos:station:DISL:MHPA:1,2014-11-06T08:30:00Z,30.6671,-87.9365,1.213,3.98,1111122 
DISL,ioos:station:DISL:MHPA:1,2014-11-06T09:00:00Z,30.6671,-87.9365,1.174,4.01,1111122 
DISL,ioos:station:DISL:MHPA:1,2014-11-06T09:30:00Z,30.6671,-87.9365,1.129,4.12,1111122 
DISL,ioos:station:DISL:MHPA:1,2014-11-06T10:00:00Z,30.6671,-87.9365,1.089,4.04,1111122 
DISL,ioos:station:DISL:MHPA:1,2014-11-06T10:30:00Z,30.6671,-87.9365,1.055,4.0,1111122 
DISL,ioos:station:DISL:MHPA:1,2014-11-06T11:00:00Z,30.6671,-87.9365,1.023,3.96,1111122 
DISL,ioos:station:DISL:MHPA:1,2014-11-06T11:30:00Z,30.6671,-87.9365,0.996,3.94,1111122 
DISL,ioos:station:DISL:MHPA:1,2014-11-06T12:00:00Z,30.6671,-87.9365,0.966,3.9,1111122 
DISL,ioos:station:DISL:MHPA:1,2014-11-06T12:30:00Z,30.6671,-87.9365,0.943,3.99,1111122 
DISL,ioos:station:DISL:MHPA:1,2014-11-06T13:00:00Z,30.6671,-87.9365,0.925,4.02,1111122 
DISL,ioos:station:DISL:MHPA:1,2014-11-06T13:30:00Z,30.6671,-87.9365,0.911,4.07,1111122 
DISL,ioos:station:DISL:MHPA:1,2014-11-06T14:00:00Z,30.6671,-87.9365,0.903,4.11,1111122 
DISL,ioos:station:DISL:MHPA:1,2014-11-06T14:30:00Z,30.6671,-87.9365,0.896,4.14,1111122 
DISL,ioos:station:DISL:MHPA:1,2014-11-06T15:00:00Z,30.6671,-87.9365,0.901,4.02,1111122 
DISL,ioos:station:DISL:MHPA:1,2014-11-06T15:30:00Z,30.6671,-87.9365,0.899,4.08,1111122 